Regional Weather Roundup
Issued by NWS San Angelo, TX

Home | Current Version | Previous Version | Text Only | Print | Product List | Glossary Off
Versions: 1 2 3 4 5 6 7 8 9 10 11 12 13 14 15 16 17 18 19 20 21 22 23 24 25 26 27 28 29 30 31 32 33 34 35 36 37 38 39 40 41 42 43 44 45 46 47 48 49 50

000
ASUS44 KSJT 011310
RWRSJT
WEST CENTRAL TEXAS REGIONAL WEATHER ROUNDUP
NATIONAL WEATHER SERVICE SAN ANGELO TX
800 AM CDT MON SEP 01 2014

NOTE: "FAIR" INDICATES FEW OR NO CLOUDS BELOW 12,000 FEET WITH NO
SIGNIFICANT WEATHER AND/OR OBSTRUCTIONS TO VISIBILITY.

TXZ049-054-064>066-071>073-076>078-098-099-113-114-127-128-139-140-
154-155-168>170-011400
...LOCATIONS ACROSS WEST CENTRAL TEXAS...

CITY           SKY/WX    TMP DP  RH WIND       PRES   REMARKS
SAN ANGELO     CLEAR     77  69  76 S15G22    29.92R
ABILENE        CLEAR     76  69  79 S18G26    29.91R
DYESS AFB      CLEAR     76  69  78 S15G23    29.89R
JUNCTION       CLEAR     74  68  81 S5        29.96R
SWEETWATER     CLEAR     76  69  79 S18G25    29.94R
BROWNWOOD      CLEAR     75  68  78 S9        29.94R
COLEMAN        SUNNY     74  67  78 S14       29.94R
SONORA         CLEAR     73  70  88 S8        30.01R
OZONA          PTSUNNY   75  68  78 S13G18    29.98R
BRADY          CLEAR     73  68  83 S9        29.95R
$$

TEXAS PANHANDLE/OKLAHOMA PANHANDLE

CITY           SKY/WX    TMP DP  RH WIND       PRES   REMARKS
AMARILLO       CLEAR     69  56  62 NW3       29.93R
BORGER         CLEAR     67  58  72 NW5       29.92R
CANADIAN       CLEAR     68  64  86 CALM      29.86R
DALHART        CLEAR     63  53  70 N13       29.99R
DUMAS          SUNNY     60  56  87 N9        29.96R
GUYMON         NOT AVBL
HEREFORD       SUNNY     64  59  84 SW5       29.95R
PAMPA          SUNNY     63  56  79 NW8       29.91R
PERRYTON       CLEAR     64  60  87 NW12      29.88R
$$

SOUTHERN PANHANDLE/SOUTH PLAINS/ROLLING PLAINS

CITY           SKY/WX    TMP DP  RH WIND       PRES   REMARKS
LUBBOCK        CLEAR     76  61  59 SW14      29.91R
SNYDER         CLEAR     75  68  78 S14       29.92R
CHILDRESS      CLEAR     74  66  76 SE7       29.84R
SEMINOLE       SUNNY     73  61  65 S6        29.95R
$$

PERMIAN BASIN

CITY           SKY/WX    TMP DP  RH WIND       PRES   REMARKS
MIDLAND        CLEAR     77  63  61 S10       29.93R
ODESSA         CLEAR     77  62  59 S16       29.94R
WINK           CLEAR     77  63  61 SE10      29.90R
$$

FAR WEST/SOUTHWEST MOUNTAINS/TRANS PECOS

CITY           SKY/WX    TMP DP  RH WIND       PRES   REMARKS
ALPINE         SUNNY     69  57  65 SW8       30.11R
DRYDEN         NOT AVBL
EL PASO        CLEAR     73  44  35 S6        30.00R
FORT STOCKTON  CLEAR     75  62  64 S12       29.94R
GUADALUPE PASS CLEAR     69  45  41 SW12      30.12R
MARFA          CLEAR     59  55  88 N5        30.12R
PECOS          SUNNY     72  60  66 CALM      29.90R
$$

DALLAS/FORT WORTH METROPLEX

CITY           SKY/WX    TMP DP  RH WIND       PRES   REMARKS
DFW AIRPORT    PTSUNNY   79  72  79 S17       29.91R
FTW MEACHAM    MOSUNNY   79  72  79 S14       29.90R
DAL-EXECUTIVE  MOSUNNY   79  72  79 S10G21    29.92R
GRAND PRAIRIE  PTSUNNY   79  72  78 MISG      29.93R
ADDISON        PTSUNNY   79  70  73 S12G17    29.92R
MESQUITE       NOT AVBL
LANCASTER      SUNNY     77  71  82 S9        29.93R
$$

NORTH CENTRAL TEXAS

CITY           SKY/WX    TMP DP  RH WIND       PRES   REMARKS
SHRMAN/DENISON SUNNY     76  70  81 S10G16    29.93R
GAINESVILLE    SUNNY     75  71  87 SE10      29.92R
BRIDGEPORT     SUNNY     77  68  74 S13       29.91R
DENTON         SUNNY     77  72  84 S10       29.91R
WAXAHACHIE     PTSUNNY   76  70  81 S9        29.93S
GRANBURY       SUNNY     79  71  75 S12G17    29.92R
$$

WESTERN NORTH TEXAS

CITY           SKY/WX    TMP DP  RH WIND       PRES   REMARKS
WICHITA FALLS  CLEAR     79  70  74 S14       29.84R
VERNON         SUNNY     80  68  68 S13       29.84R
BRECKENRIDGE   SUNNY     79  68  69 S13G20    29.89R HAZE
COMANCHE         N/A     75  69  80 S15G21    29.94R
$$

CENTRAL AND SOUTH CENTRAL TEXAS

CITY           SKY/WX    TMP DP  RH WIND       PRES   REMARKS
AUSTIN/BERGSTM MOSUNNY   77  75  93 SE6       29.94R
WACO           MOSUNNY   78  74  87 S15       29.93S
HILLSBORO      PTSUNNY   77  72  84 S12       29.93S
TEMPLE         PTSUNNY   75  70  83 S10       29.94R
KILLEEN-GRAY   MOSUNNY   77  73  88 SE12      29.95R
FORT HOOD      MOSUNNY   79  73  82 SE9       29.94S
GEORGETOWN     CLOUDY    79  75  89 SE5       29.97R
LAGO VISTA     CLOUDY    77  73  88 S6        29.98R
SAN MARCOS     PTSUNNY   75  72  88 SE8       29.97R FOG
NEW BRAUNFELS  CLOUDY    78  75  90 S6        29.94R
RANDOLPH AFB   PTCLDY    77  73  88 S7        29.96R
SAN ANTONIO    MOCLDY    80  74  81 S10       29.95R
STINSON        CLOUDY    78  76  93 SE6       29.93R
PLEASANTON     NOT AVBL
LA GRANGE      CLOUDY    78  78  98 S3        29.93S FOG
GIDDINGS       CLOUDY    77  75  95 S3        29.99S FOG
$$

EAST TEXAS

CITY           SKY/WX    TMP DP  RH WIND       PRES   REMARKS
PARIS          PTSUNNY   77  66  69 S14       29.96R
CLARKSVILLE    NOT AVBL
TYLER          CLOUDY    78  74  87 S10       29.96S
LONGVIEW       MOSUNNY   78  74  87 S8        29.97R
PALESTINE      CLOUDY    77  75  93 S5        29.98S FOG
NACOGDOCHES    CLOUDY    77  75  94 S7        30.00R
$$

TEXAS HILL COUNTRY AND EDWARDS PLATEAU

CITY           SKY/WX    TMP DP  RH WIND       PRES   REMARKS
LLANO          SUNNY     77  70  78 CALM      29.98R
HORSESHOE BAY  FAIR      76  71  85 CALM      29.96R
KERRVILLE      MOCLDY    74  71  89 S9        29.98R
FREDERICKSBRG  PTCLDY    74  69  82 S6        29.98R
ROCKSPRINGS    MOSUNNY   72  70  94 SE13      30.01R
HONDO          CLOUDY    78  74  87 SE7       29.97R
UVALDE         CLOUDY    76  74  94 E7        29.94R
DEL RIO        CLEAR     78  70  76 E8        29.91R
$$

SOUTHEAST TEXAS

CITY           SKY/WX    TMP DP  RH WIND       PRES   REMARKS
COLLEGE STN    CLOUDY    76  75  97 SE6       29.97R FOG
CALDWELL       CLOUDY    77  77 100 SE7       30.00R FOG
CROCKETT       NOT AVBL
BRENHAM        CLOUDY    77  76  96 SE3       29.97R FOG
HUNTSVILLE     CLOUDY    77  75  93 CALM      29.98R
CONROE         FOG       75  74  96 CALM      29.98R VSB<1/4
HOUSTON BUSH   MOSUNNY   77  75  94 CALM      29.96R
HOUSTON HOBBY  MOSUNNY   78  75  90 CALM      29.95R
PERLAND        SUNNY     78  75  90 CALM      29.96R
WHARTON        SUNNY     75  74  97 CALM      29.95S FOG
$$

THE UPPER TEXAS COAST

CITY           SKY/WX    TMP DP  RH WIND       PRES   REMARKS
ORANGE         SUNNY     80  80 100 E5        29.99R
PORT ARTHUR    MOSUNNY   81  78  91 E3        29.97R
GALVESTON      MOSUNNY   84  78  82 SE8       29.95S
ANGLETON       PTSUNNY   76  75  97 CALM      29.95R
BAY CITY       SUNNY     77  77 100 SE3       29.94R
$$

TEXAS COASTAL BEND, RIO GRANDE PLAINS DEEP SOUTH TEXAS

CITY           SKY/WX    TMP DP  RH WIND       PRES   REMARKS
VICTORIA       SUNNY     80  78  94 SE3       29.93S FOG
BEEVILLE         N/A     77  77 100 CALM      29.93R FOG
ROCKPORT       MOSUNNY   83  77  82 S6        29.92R
PORT ARANSAS   PTSUNNY   84  78  83 S9        29.91S
PORT LAVACA    SUNNY     78  77  95 CALM      29.93R FOG
CORPUS CHRISTI MOSUNNY   79  78  97 SE6       29.92R
KINGSVILLE NAS MOSUNNY   79  79 100 E5        29.91R
COTULLA        CLEAR     77  73  87 SE7       29.91R
LAREDO         CLEAR     79  75  87 SE9       29.92R
BROWNSVILLE    MOSUNNY   80  78  94 CALM      29.90R
PORT ISABEL    MOSUNNY   83  79  88 SE5       29.89R FOG
HEBBRONVILLE   PTSUNNY   78  75  92 SE7       29.93R
MCALLEN        CLEAR     79  78  97 E5        29.90R
WESLACO        NOT AVBL
FALFURRIAS       N/A     69  67  94 SE3       29.90S
EDINBURG       SUNNY     80  76  90 E3        29.90R FOG
$$



USA.gov is the U.S. government's official web portal to all federal, state and local government web resources and services.